STARLINK-11261, 60724

Orbit data source: Space-Track

STARLINK-11261, 60724 is a payload satellite owned by SpaceX/Seattle (US) in LEO that was launched on Wed, 28 Aug 2024 UTC via an FALCON 9 launch vehicle from the Air Force Eastern Test Range (AFETR). Payload-class satellites include a variety of spacecraft equipped with specific instruments for various scientific and technological missions. These include communications satellites like Starlink; space stations such as the ISS; scientific satellites like the Hubble; Earth observation satellites from companies like Planet Labs, Umbra, and HawkEye 360; GPS; miniature CubeSats for education and research; and military/defense satellites.

Loading next visibility...
Identifier
60724, 2024-152E
Orbit
LEO
Country
Flag of USUS
Related business
Manufacturer
SpaceX/Seattle
Mission
Operational Commercial Communications
Bus & Motor
STARLINK V2MD, Unknown motor
Mass
960 kg wet, ~910 kg dry
Launch date (UTC)
2024-08-28 (1 year ago)
Launch vehicle
FALCON 9
Launch site
Air Force Eastern Test Range (AFETR)
Object type
Payload
Rocket body
Debris
Shape & HBR
Box + 2 Pan, 18.1 m
Radar Cross Section
36.964 m², Large (>1 m²)

Expand to show TLE details & history
Last TLE update: 1 day ago

TLE from 1 day ago
0 STARLINK-11261
1 60724U 24152E   25303.48953269  .00003070  00000-0  30184-4 0  9992
2 60724  53.1586  38.2454 0001501  88.7667 271.3523 15.69720946 68381
Epoch: 2025-10-30T11:44Z
TLE epoch observation values (Epoch: 2025-10-30T11:44:55.624Z)
Latitude
-0.00001°
Longitude
-177.03395°
Altitude
360.587 km
Speed
7.694 km/s
True Right ascension
02h 32m 58s
True Declination
0° 00' 00"
Sunlit
Object was in full shadow at epoch
Visualization orbit readout
Latitude
Unknown
Longitude
Unknown
Altitude
Unknown
Speed
Unknown
Apparent Right ascension
Unknown
Apparent Declination
Unknown
Sunlit
N/A
Visualization observer readout
Local Sidereal Time
10:00:58
Azimuth
Unknown
Elevation
Unknown
Doppler factor
Unknown
Orbital elements
Apogee altitude
360.968 km
Perigee altitude
358.945 km
Semi-major axis
6,738.093 km
Eccentricity
0.00015
Inclination
53.1586°
RAAN
38.2454°
Arg. of periapsis
88.7667°
True anomaly
271.3351°
Mean anomaly
271.3523°
Eccentric anomaly
271.3437°
Mean motion
3.92408 °/min
Orbital period
91.74 mins
BSTAR
0.000030184
Loading maneuver chart data...
Computing Atmospheric mass density...
Loading historical data...
Loading historical data...
Loading historical data...
Loading historical data...
Loading historical data...
Loading historical data...
Loading historical data...

Documentation

Showing up to 5 results
|